owner,sensor,date,latitude,longitude,sea_surface_height_above_sea_level,qcFlag 
COMPS,ioos:station:USF.COMPS:ARP:1,2017-10-01T01:00:00Z,28.4330,-82.6670,-9.99,1111122 
COMPS,ioos:station:USF.COMPS:ARP:1,2017-10-01T01:06:00Z,28.4330,-82.6670,-9.975,1111122 
COMPS,ioos:station:USF.COMPS:ARP:1,2017-10-01T01:12:00Z,28.4330,-82.6670,-9.962,1111122 
COMPS,ioos:station:USF.COMPS:ARP:1,2017-10-01T01:18:00Z,28.4330,-82.6670,-9.957,1111122 
COMPS,ioos:station:USF.COMPS:ARP:1,2017-10-01T01:24:00Z,28.4330,-82.6670,-9.957,1111122 
COMPS,ioos:station:USF.COMPS:ARP:1,2017-10-01T01:30:00Z,28.4330,-82.6670,-9.959,1111122 
COMPS,ioos:station:USF.COMPS:ARP:1,2017-10-01T01:36:00Z,28.4330,-82.6670,-9.961,1111122 
COMPS,ioos:station:USF.COMPS:ARP:1,2017-10-01T01:42:00Z,28.4330,-82.6670,-9.965,1111122 
COMPS,ioos:station:USF.COMPS:ARP:1,2017-10-01T01:48:00Z,28.4330,-82.6670,-9.968,1111122 
COMPS,ioos:station:USF.COMPS:ARP:1,2017-10-01T01:54:00Z,28.4330,-82.6670,-9.962,1111122 
COMPS,ioos:station:USF.COMPS:ARP:1,2017-10-01T02:00:00Z,28.4330,-82.6670,-9.958,1111122 
COMPS,ioos:station:USF.COMPS:ARP:1,2017-10-01T02:06:00Z,28.4330,-82.6670,-9.948,1111122 
COMPS,ioos:station:USF.COMPS:ARP:1,2017-10-01T02:12:00Z,28.4330,-82.6670,-9.936,1111122 
COMPS,ioos:station:USF.COMPS:ARP:1,2017-10-01T02:18:00Z,28.4330,-82.6670,-9.923,1111122 
COMPS,ioos:station:USF.COMPS:ARP:1,2017-10-01T02:24:00Z,28.4330,-82.6670,-9.908,1111122 
COMPS,ioos:station:USF.COMPS:ARP:1,2017-10-01T02:30:00Z,28.4330,-82.6670,-9.9,1111122 
COMPS,ioos:station:USF.COMPS:ARP:1,2017-10-01T02:36:00Z,28.4330,-82.6670,-9.888,1111122 
COMPS,ioos:station:USF.COMPS:ARP:1,2017-10-01T02:42:00Z,28.4330,-82.6670,-9.883,1111122 
COMPS,ioos:station:USF.COMPS:ARP:1,2017-10-01T02:48:00Z,28.4330,-82.6670,-9.881,1111122 
COMPS,ioos:station:USF.COMPS:ARP:1,2017-10-01T02:54:00Z,28.4330,-82.6670,-9.88,1111122 
COMPS,ioos:station:USF.COMPS:ARP:1,2017-10-01T03:00:00Z,28.4330,-82.6670,-9.887,1111122 
COMPS,ioos:station:USF.COMPS:ARP:1,2017-10-01T03:06:00Z,28.4330,-82.6670,-9.893,1111122 
COMPS,ioos:station:USF.COMPS:ARP:1,2017-10-01T03:12:00Z,28.4330,-82.6670,-9.903,1111122 
COMPS,ioos:station:USF.COMPS:ARP:1,2017-10-01T03:18:00Z,28.4330,-82.6670,-9.897,1111122 
COMPS,ioos:station:USF.COMPS:ARP:1,2017-10-01T03:24:00Z,28.4330,-82.6670,-9.9,1111122 
COMPS,ioos:station:USF.COMPS:ARP:1,2017-10-01T03:30:00Z,28.4330,-82.6670,-9.893,1111122 
COMPS,ioos:station:USF.COMPS:ARP:1,2017-10-01T03:36:00Z,28.4330,-82.6670,-9.886,1111122 
COMPS,ioos:station:USF.COMPS:ARP:1,2017-10-01T03:42:00Z,28.4330,-82.6670,-9.882,1111122 
COMPS,ioos:station:USF.COMPS:ARP:1,2017-10-01T03:48:00Z,28.4330,-82.6670,-9.876,1111122 
COMPS,ioos:station:USF.COMPS:ARP:1,2017-10-01T03:54:00Z,28.4330,-82.6670,-9.872,1111122 
COMPS,ioos:station:USF.COMPS:ARP:1,2017-10-01T04:00:00Z,28.4330,-82.6670,-9.875,1111122 
COMPS,ioos:station:USF.COMPS:ARP:1,2017-10-01T04:06:00Z,28.4330,-82.6670,-9.875,1111122 
COMPS,ioos:station:USF.COMPS:ARP:1,2017-10-01T04:12:00Z,28.4330,-82.6670,-9.871,1111122 
COMPS,ioos:station:USF.COMPS:ARP:1,2017-10-01T04:18:00Z,28.4330,-82.6670,-9.872,1111122 
COMPS,ioos:station:USF.COMPS:ARP:1,2017-10-01T04:24:00Z,28.4330,-82.6670,-9.876,1111122 
COMPS,ioos:station:USF.COMPS:ARP:1,2017-10-01T04:30:00Z,28.4330,-82.6670,-9.879,1111122 
COMPS,ioos:station:USF.COMPS:ARP:1,2017-10-01T04:36:00Z,28.4330,-82.6670,-9.887,1111122 
COMPS,ioos:station:USF.COMPS:ARP:1,2017-10-01T04:42:00Z,28.4330,-82.6670,-9.898,1111122 
COMPS,ioos:station:USF.COMPS:ARP:1,2017-10-01T04:48:00Z,28.4330,-82.6670,-9.902,1111122 
COMPS,ioos:station:USF.COMPS:ARP:1,2017-10-01T04:54:00Z,28.4330,-82.6670,-9.902,1111122 
COMPS,ioos:station:USF.COMPS:ARP:1,2017-10-01T05:00:00Z,28.4330,-82.6670,-9.909,1111122 
COMPS,ioos:station:USF.COMPS:ARP:1,2017-10-01T05:06:00Z,28.4330,-82.6670,-9.909,1111122 
COMPS,ioos:station:USF.COMPS:ARP:1,2017-10-01T05:12:00Z,28.4330,-82.6670,-9.907,1111122 
COMPS,ioos:station:USF.COMPS:ARP:1,2017-10-01T05:18:00Z,28.4330,-82.6670,-9.908,1111122 
COMPS,ioos:station:USF.COMPS:ARP:1,2017-10-01T05:24:00Z,28.4330,-82.6670,-9.904,1111122 
COMPS,ioos:station:USF.COMPS:ARP:1,2017-10-01T05:30:00Z,28.4330,-82.6670,-9.908,1111122 
COMPS,ioos:station:USF.COMPS:ARP:1,2017-10-01T05:36:00Z,28.4330,-82.6670,-9.921,1111122 
COMPS,ioos:station:USF.COMPS:ARP:1,2017-10-01T05:48:00Z,28.4330,-82.6670,-9.951,1111122 
COMPS,ioos:station:USF.COMPS:ARP:1,2017-10-01T05:54:00Z,28.4330,-82.6670,-9.967,1111122 
COMPS,ioos:station:USF.COMPS:ARP:1,2017-10-01T06:00:00Z,28.4330,-82.6670,-9.984,1111122 
COMPS,ioos:station:USF.COMPS:ARP:1,2017-10-01T06:06:00Z,28.4330,-82.6670,-9.999,1111122 
COMPS,ioos:station:USF.COMPS:ARP:1,2017-10-01T07:54:00Z,28.4330,-82.6670,-9.994,1111122 
COMPS,ioos:station:USF.COMPS:ARP:1,2017-10-01T08:00:00Z,28.4330,-82.6670,-9.982,1111122 
COMPS,ioos:station:USF.COMPS:ARP:1,2017-10-01T08:06:00Z,28.4330,-82.6670,-9.967,1111122 
COMPS,ioos:station:USF.COMPS:ARP:1,2017-10-01T08:12:00Z,28.4330,-82.6670,-9.953,1111122 
COMPS,ioos:station:USF.COMPS:ARP:1,2017-10-01T08:18:00Z,28.4330,-82.6670,-9.942,1111122 
COMPS,ioos:station:USF.COMPS:ARP:1,2017-10-01T08:24:00Z,28.4330,-82.6670,-9.933,1111122 
COMPS,ioos:station:USF.COMPS:ARP:1,2017-10-01T08:30:00Z,28.4330,-82.6670,-9.925,1111122 
COMPS,ioos:station:USF.COMPS:ARP:1,2017-10-01T08:36:00Z,28.4330,-82.6670,-9.917,1111122 
COMPS,ioos:station:USF.COMPS:ARP:1,2017-10-01T08:42:00Z,28.4330,-82.6670,-9.911,1111122 
COMPS,ioos:station:USF.COMPS:ARP:1,2017-10-01T08:48:00Z,28.4330,-82.6670,-9.903,1111122 
COMPS,ioos:station:USF.COMPS:ARP:1,2017-10-01T08:54:00Z,28.4330,-82.6670,-9.895,1111122 
COMPS,ioos:station:USF.COMPS:ARP:1,2017-10-01T09:00:00Z,28.4330,-82.6670,-9.888,1111122 
COMPS,ioos:station:USF.COMPS:ARP:1,2017-10-01T09:06:00Z,28.4330,-82.6670,-9.881,1111122 
COMPS,ioos:station:USF.COMPS:ARP:1,2017-10-01T09:12:00Z,28.4330,-82.6670,-9.877,1111122 
COMPS,ioos:station:USF.COMPS:ARP:1,2017-10-01T09:18:00Z,28.4330,-82.6670,-9.867,1111122 
COMPS,ioos:station:USF.COMPS:ARP:1,2017-10-01T09:24:00Z,28.4330,-82.6670,-9.861,1111122 
COMPS,ioos:station:USF.COMPS:ARP:1,2017-10-01T09:30:00Z,28.4330,-82.6670,-9.856,1111122 
COMPS,ioos:station:USF.COMPS:ARP:1,2017-10-01T09:36:00Z,28.4330,-82.6670,-9.848,1111122 
COMPS,ioos:station:USF.COMPS:ARP:1,2017-10-01T09:42:00Z,28.4330,-82.6670,-9.841,1111122 
COMPS,ioos:station:USF.COMPS:ARP:1,2017-10-01T09:48:00Z,28.4330,-82.6670,-9.836,1111122 
COMPS,ioos:station:USF.COMPS:ARP:1,2017-10-01T09:54:00Z,28.4330,-82.6670,-9.832,1111122 
COMPS,ioos:station:USF.COMPS:ARP:1,2017-10-01T10:00:00Z,28.4330,-82.6670,-9.825,1111122 
COMPS,ioos:station:USF.COMPS:ARP:1,2017-10-01T10:06:00Z,28.4330,-82.6670,-9.818,1111122 
COMPS,ioos:station:USF.COMPS:ARP:1,2017-10-01T10:12:00Z,28.4330,-82.6670,-9.812,1111122 
COMPS,ioos:station:USF.COMPS:ARP:1,2017-10-01T10:18:00Z,28.4330,-82.6670,-9.803,1111122 
COMPS,ioos:station:USF.COMPS:ARP:1,2017-10-01T10:24:00Z,28.4330,-82.6670,-9.795,1111122 
COMPS,ioos:station:USF.COMPS:ARP:1,2017-10-01T10:30:00Z,28.4330,-82.6670,-9.787,1111122 
COMPS,ioos:station:USF.COMPS:ARP:1,2017-10-01T10:36:00Z,28.4330,-82.6670,-9.778,1111122 
COMPS,ioos:station:USF.COMPS:ARP:1,2017-10-01T10:42:00Z,28.4330,-82.6670,-9.771,1111122 
COMPS,ioos:station:USF.COMPS:ARP:1,2017-10-01T10:48:00Z,28.4330,-82.6670,-9.763,1111122 
COMPS,ioos:station:USF.COMPS:ARP:1,2017-10-01T10:54:00Z,28.4330,-82.6670,-9.753,1111122 
COMPS,ioos:station:USF.COMPS:ARP:1,2017-10-01T11:00:00Z,28.4330,-82.6670,-9.741,1111122 
COMPS,ioos:station:USF.COMPS:ARP:1,2017-10-01T11:06:00Z,28.4330,-82.6670,-9.731,1111122 
COMPS,ioos:station:USF.COMPS:ARP:1,2017-10-01T11:12:00Z,28.4330,-82.6670,-9.717,1111122 
COMPS,ioos:station:USF.COMPS:ARP:1,2017-10-01T11:18:00Z,28.4330,-82.6670,-9.703,1111122 
COMPS,ioos:station:USF.COMPS:ARP:1,2017-10-01T11:24:00Z,28.4330,-82.6670,-9.689,1111122 
COMPS,ioos:station:USF.COMPS:ARP:1,2017-10-01T11:30:00Z,28.4330,-82.6670,-9.674,1111122 
COMPS,ioos:station:USF.COMPS:ARP:1,2017-10-01T11:36:00Z,28.4330,-82.6670,-9.661,1111122 
COMPS,ioos:station:USF.COMPS:ARP:1,2017-10-01T11:42:00Z,28.4330,-82.6670,-9.65,1111122 
COMPS,ioos:station:USF.COMPS:ARP:1,2017-10-01T11:48:00Z,28.4330,-82.6670,-9.641,1111122 
COMPS,ioos:station:USF.COMPS:ARP:1,2017-10-01T11:54:00Z,28.4330,-82.6670,-9.633,1111122 
COMPS,ioos:station:USF.COMPS:ARP:1,2017-10-01T12:00:00Z,28.4330,-82.6670,-9.625,1111122 
COMPS,ioos:station:USF.COMPS:ARP:1,2017-10-01T12:06:00Z,28.4330,-82.6670,-9.619,1111122 
COMPS,ioos:station:USF.COMPS:ARP:1,2017-10-01T12:12:00Z,28.4330,-82.6670,-9.609,1111122 
COMPS,ioos:station:USF.COMPS:ARP:1,2017-10-01T12:18:00Z,28.4330,-82.6670,-9.6,1111122 
COMPS,ioos:station:USF.COMPS:ARP:1,2017-10-01T12:24:00Z,28.4330,-82.6670,-9.593,1111122 
COMPS,ioos:station:USF.COMPS:ARP:1,2017-10-01T12:30:00Z,28.4330,-82.6670,-9.58,1111122 
COMPS,ioos:station:USF.COMPS:ARP:1,2017-10-01T12:36:00Z,28.4330,-82.6670,-9.571,1111122 
COMPS,ioos:station:USF.COMPS:ARP:1,2017-10-01T12:42:00Z,28.4330,-82.6670,-9.563,1111122 
COMPS,ioos:station:USF.COMPS:ARP:1,2017-10-01T12:48:00Z,28.4330,-82.6670,-9.559,1111122 
COMPS,ioos:station:USF.COMPS:ARP:1,2017-10-01T12:54:00Z,28.4330,-82.6670,-9.56,1111122 
COMPS,ioos:station:USF.COMPS:ARP:1,2017-10-01T13:00:00Z,28.4330,-82.6670,-9.561,1111122 
COMPS,ioos:station:USF.COMPS:ARP:1,2017-10-01T13:06:00Z,28.4330,-82.6670,-9.561,1111122 
COMPS,ioos:station:USF.COMPS:ARP:1,2017-10-01T13:12:00Z,28.4330,-82.6670,-9.557,1111122 
COMPS,ioos:station:USF.COMPS:ARP:1,2017-10-01T13:18:00Z,28.4330,-82.6670,-9.557,1111122 
COMPS,ioos:station:USF.COMPS:ARP:1,2017-10-01T13:24:00Z,28.4330,-82.6670,-9.549,1111122 
COMPS,ioos:station:USF.COMPS:ARP:1,2017-10-01T13:30:00Z,28.4330,-82.6670,-9.54,1111122 
COMPS,ioos:station:USF.COMPS:ARP:1,2017-10-01T13:36:00Z,28.4330,-82.6670,-9.533,1111122 
COMPS,ioos:station:USF.COMPS:ARP:1,2017-10-01T13:42:00Z,28.4330,-82.6670,-9.525,1111122 
COMPS,ioos:station:USF.COMPS:ARP:1,2017-10-01T13:48:00Z,28.4330,-82.6670,-9.52,1111122 
COMPS,ioos:station:USF.COMPS:ARP:1,2017-10-01T13:54:00Z,28.4330,-82.6670,-9.512,1111122 
COMPS,ioos:station:USF.COMPS:ARP:1,2017-10-01T14:00:00Z,28.4330,-82.6670,-9.508,1111122 
COMPS,ioos:station:USF.COMPS:ARP:1,2017-10-01T14:06:00Z,28.4330,-82.6670,-9.507,1111122 
COMPS,ioos:station:USF.COMPS:ARP:1,2017-10-01T14:12:00Z,28.4330,-82.6670,-9.506,1111122 
COMPS,ioos:station:USF.COMPS:ARP:1,2017-10-01T14:18:00Z,28.4330,-82.6670,-9.509,1111122 
COMPS,ioos:station:USF.COMPS:ARP:1,2017-10-01T14:24:00Z,28.4330,-82.6670,-9.506,1111122 
COMPS,ioos:station:USF.COMPS:ARP:1,2017-10-01T14:30:00Z,28.4330,-82.6670,-9.502,1111122 
COMPS,ioos:station:USF.COMPS:ARP:1,2017-10-01T14:36:00Z,28.4330,-82.6670,-9.497,1111122 
COMPS,ioos:station:USF.COMPS:ARP:1,2017-10-01T14:42:00Z,28.4330,-82.6670,-9.495,1111122 
COMPS,ioos:station:USF.COMPS:ARP:1,2017-10-01T14:48:00Z,28.4330,-82.6670,-9.488,1111122 
COMPS,ioos:station:USF.COMPS:ARP:1,2017-10-01T15:00:00Z,28.4330,-82.6670,-9.482,1111122 
COMPS,ioos:station:USF.COMPS:ARP:1,2017-10-01T15:06:00Z,28.4330,-82.6670,-9.487,1111122 
COMPS,ioos:station:USF.COMPS:ARP:1,2017-10-01T15:12:00Z,28.4330,-82.6670,-9.49,1111122 
COMPS,ioos:station:USF.COMPS:ARP:1,2017-10-01T15:18:00Z,28.4330,-82.6670,-9.497,1111122 
COMPS,ioos:station:USF.COMPS:ARP:1,2017-10-01T15:30:00Z,28.4330,-82.6670,-9.518,1111122 
COMPS,ioos:station:USF.COMPS:ARP:1,2017-10-01T15:36:00Z,28.4330,-82.6670,-9.528,1111122 
COMPS,ioos:station:USF.COMPS:ARP:1,2017-10-01T15:42:00Z,28.4330,-82.6670,-9.543,1111122 
COMPS,ioos:station:USF.COMPS:ARP:1,2017-10-01T15:48:00Z,28.4330,-82.6670,-9.564,1111122 
COMPS,ioos:station:USF.COMPS:ARP:1,2017-10-01T15:54:00Z,28.4330,-82.6670,-9.581,1111122 
COMPS,ioos:station:USF.COMPS:ARP:1,2017-10-01T16:00:00Z,28.4330,-82.6670,-9.598,1111122 
COMPS,ioos:station:USF.COMPS:ARP:1,2017-10-01T16:06:00Z,28.4330,-82.6670,-9.612,1111122 
COMPS,ioos:station:USF.COMPS:ARP:1,2017-10-01T16:12:00Z,28.4330,-82.6670,-9.629,1111122 
COMPS,ioos:station:USF.COMPS:ARP:1,2017-10-01T16:18:00Z,28.4330,-82.6670,-9.644,1111122 
COMPS,ioos:station:USF.COMPS:ARP:1,2017-10-01T16:24:00Z,28.4330,-82.6670,-9.657,1111122 
COMPS,ioos:station:USF.COMPS:ARP:1,2017-10-01T16:30:00Z,28.4330,-82.6670,-9.675,1111122 
COMPS,ioos:station:USF.COMPS:ARP:1,2017-10-01T16:36:00Z,28.4330,-82.6670,-9.695,1111122 
COMPS,ioos:station:USF.COMPS:ARP:1,2017-10-01T16:42:00Z,28.4330,-82.6670,-9.712,1111122 
COMPS,ioos:station:USF.COMPS:ARP:1,2017-10-01T16:48:00Z,28.4330,-82.6670,-9.726,1111122 
COMPS,ioos:station:USF.COMPS:ARP:1,2017-10-01T16:54:00Z,28.4330,-82.6670,-9.738,1111122 
COMPS,ioos:station:USF.COMPS:ARP:1,2017-10-01T17:00:00Z,28.4330,-82.6670,-9.752,1111122 
COMPS,ioos:station:USF.COMPS:ARP:1,2017-10-01T17:06:00Z,28.4330,-82.6670,-9.766,1111122 
COMPS,ioos:station:USF.COMPS:ARP:1,2017-10-01T17:12:00Z,28.4330,-82.6670,-9.771,1111122 
COMPS,ioos:station:USF.COMPS:ARP:1,2017-10-01T17:18:00Z,28.4330,-82.6670,-9.781,1111122 
COMPS,ioos:station:USF.COMPS:ARP:1,2017-10-01T17:24:00Z,28.4330,-82.6670,-9.793,1111122 
COMPS,ioos:station:USF.COMPS:ARP:1,2017-10-01T17:30:00Z,28.4330,-82.6670,-9.804,1111122 
COMPS,ioos:station:USF.COMPS:ARP:1,2017-10-01T17:36:00Z,28.4330,-82.6670,-9.816,1111122 
COMPS,ioos:station:USF.COMPS:ARP:1,2017-10-01T17:42:00Z,28.4330,-82.6670,-9.833,1111122 
COMPS,ioos:station:USF.COMPS:ARP:1,2017-10-01T17:48:00Z,28.4330,-82.6670,-9.846,1111122 
COMPS,ioos:station:USF.COMPS:ARP:1,2017-10-01T17:54:00Z,28.4330,-82.6670,-9.857,1111122 
COMPS,ioos:station:USF.COMPS:ARP:1,2017-10-01T18:00:00Z,28.4330,-82.6670,-9.868,1111122 
COMPS,ioos:station:USF.COMPS:ARP:1,2017-10-01T18:06:00Z,28.4330,-82.6670,-9.879,1111122 
COMPS,ioos:station:USF.COMPS:ARP:1,2017-10-01T18:12:00Z,28.4330,-82.6670,-9.893,1111122 
COMPS,ioos:station:USF.COMPS:ARP:1,2017-10-01T18:24:00Z,28.4330,-82.6670,-9.919,1111122 
COMPS,ioos:station:USF.COMPS:ARP:1,2017-10-01T18:30:00Z,28.4330,-82.6670,-9.932,1111122 
COMPS,ioos:station:USF.COMPS:ARP:1,2017-10-01T18:36:00Z,28.4330,-82.6670,-9.945,1111122 
COMPS,ioos:station:USF.COMPS:ARP:1,2017-10-01T18:42:00Z,28.4330,-82.6670,-9.958,1111122 
COMPS,ioos:station:USF.COMPS:ARP:1,2017-10-01T18:48:00Z,28.4330,-82.6670,-9.967,1111122 
COMPS,ioos:station:USF.COMPS:ARP:1,2017-10-01T18:54:00Z,28.4330,-82.6670,-9.983,1111122 
COMPS,ioos:station:USF.COMPS:ARP:1,2017-10-01T19:00:00Z,28.4330,-82.6670,-9.996,1111122 
COMPS,ioos:station:USF.COMPS:ARP:1,2017-10-01T19:18:00Z,28.4330,-82.6670,-9.117,1111122 
COMPS,ioos:station:USF.COMPS:ARP:1,2017-10-01T19:48:00Z,28.4330,-82.6670,-9.117,1111122 
COMPS,ioos:station:USF.COMPS:ARP:1,2017-10-02T01:00:00Z,28.4330,-82.6670,-9.997,1111122 
COMPS,ioos:station:USF.COMPS:ARP:1,2017-10-02T01:06:00Z,28.4330,-82.6670,-9.981,1111122 
COMPS,ioos:station:USF.COMPS:ARP:1,2017-10-02T01:12:00Z,28.4330,-82.6670,-9.961,1111122 
COMPS,ioos:station:USF.COMPS:ARP:1,2017-10-02T01:18:00Z,28.4330,-82.6670,-9.944,1111122 
COMPS,ioos:station:USF.COMPS:ARP:1,2017-10-02T01:24:00Z,28.4330,-82.6670,-9.928,1111122 
COMPS,ioos:station:USF.COMPS:ARP:1,2017-10-02T01:30:00Z,28.4330,-82.6670,-9.912,1111122 
COMPS,ioos:station:USF.COMPS:ARP:1,2017-10-02T01:36:00Z,28.4330,-82.6670,-9.9,1111122 
COMPS,ioos:station:USF.COMPS:ARP:1,2017-10-02T01:42:00Z,28.4330,-82.6670,-9.887,1111122 
COMPS,ioos:station:USF.COMPS:ARP:1,2017-10-02T01:48:00Z,28.4330,-82.6670,-9.877,1111122 
COMPS,ioos:station:USF.COMPS:ARP:1,2017-10-02T01:54:00Z,28.4330,-82.6670,-9.868,1111122 
COMPS,ioos:station:USF.COMPS:ARP:1,2017-10-02T02:00:00Z,28.4330,-82.6670,-9.859,1111122 
COMPS,ioos:station:USF.COMPS:ARP:1,2017-10-02T02:06:00Z,28.4330,-82.6670,-9.853,1111122 
COMPS,ioos:station:USF.COMPS:ARP:1,2017-10-02T02:12:00Z,28.4330,-82.6670,-9.844,1111122 
COMPS,ioos:station:USF.COMPS:ARP:1,2017-10-02T02:18:00Z,28.4330,-82.6670,-9.84,1111122 
COMPS,ioos:station:USF.COMPS:ARP:1,2017-10-02T02:24:00Z,28.4330,-82.6670,-9.836,1111122 
COMPS,ioos:station:USF.COMPS:ARP:1,2017-10-02T02:30:00Z,28.4330,-82.6670,-9.826,1111122 
COMPS,ioos:station:USF.COMPS:ARP:1,2017-10-02T02:36:00Z,28.4330,-82.6670,-9.817,1111122 
COMPS,ioos:station:USF.COMPS:ARP:1,2017-10-02T02:42:00Z,28.4330,-82.6670,-9.807,1111122 
COMPS,ioos:station:USF.COMPS:ARP:1,2017-10-02T02:48:00Z,28.4330,-82.6670,-9.801,1111122 
COMPS,ioos:station:USF.COMPS:ARP:1,2017-10-02T02:54:00Z,28.4330,-82.6670,-9.795,1111122 
COMPS,ioos:station:USF.COMPS:ARP:1,2017-10-02T03:00:00Z,28.4330,-82.6670,-9.796,1111122 
COMPS,ioos:station:USF.COMPS:ARP:1,2017-10-02T03:06:00Z,28.4330,-82.6670,-9.799,1111122 
COMPS,ioos:station:USF.COMPS:ARP:1,2017-10-02T03:12:00Z,28.4330,-82.6670,-9.803,1111122 
COMPS,ioos:station:USF.COMPS:ARP:1,2017-10-02T03:18:00Z,28.4330,-82.6670,-9.806,1111122 
COMPS,ioos:station:USF.COMPS:ARP:1,2017-10-02T03:24:00Z,28.4330,-82.6670,-9.806,1111122 
COMPS,ioos:station:USF.COMPS:ARP:1,2017-10-02T03:30:00Z,28.4330,-82.6670,-9.801,1111122 
COMPS,ioos:station:USF.COMPS:ARP:1,2017-10-02T03:36:00Z,28.4330,-82.6670,-9.796,1111122 
COMPS,ioos:station:USF.COMPS:ARP:1,2017-10-02T03:42:00Z,28.4330,-82.6670,-9.788,1111122 
COMPS,ioos:station:USF.COMPS:ARP:1,2017-10-02T03:48:00Z,28.4330,-82.6670,-9.783,1111122 
COMPS,ioos:station:USF.COMPS:ARP:1,2017-10-02T03:54:00Z,28.4330,-82.6670,-9.782,1111122 
COMPS,ioos:station:USF.COMPS:ARP:1,2017-10-02T04:00:00Z,28.4330,-82.6670,-9.785,1111122 
COMPS,ioos:station:USF.COMPS:ARP:1,2017-10-02T04:06:00Z,28.4330,-82.6670,-9.792,1111122 
COMPS,ioos:station:USF.COMPS:ARP:1,2017-10-02T04:12:00Z,28.4330,-82.6670,-9.793,1111122 
COMPS,ioos:station:USF.COMPS:ARP:1,2017-10-02T04:18:00Z,28.4330,-82.6670,-9.798,1111122 
COMPS,ioos:station:USF.COMPS:ARP:1,2017-10-02T04:30:00Z,28.4330,-82.6670,-9.8,1111122 
COMPS,ioos:station:USF.COMPS:ARP:1,2017-10-02T04:36:00Z,28.4330,-82.6670,-9.802,1111122 
COMPS,ioos:station:USF.COMPS:ARP:1,2017-10-02T04:42:00Z,28.4330,-82.6670,-9.803,1111122 
COMPS,ioos:station:USF.COMPS:ARP:1,2017-10-02T04:48:00Z,28.4330,-82.6670,-9.802,1111122 
COMPS,ioos:station:USF.COMPS:ARP:1,2017-10-02T05:00:00Z,28.4330,-82.6670,-9.804,1111122 
COMPS,ioos:station:USF.COMPS:ARP:1,2017-10-02T05:06:00Z,28.4330,-82.6670,-9.803,1111122 
COMPS,ioos:station:USF.COMPS:ARP:1,2017-10-02T05:12:00Z,28.4330,-82.6670,-9.806,1111122 
COMPS,ioos:station:USF.COMPS:ARP:1,2017-10-02T05:18:00Z,28.4330,-82.6670,-9.807,1111122 
COMPS,ioos:station:USF.COMPS:ARP:1,2017-10-02T05:24:00Z,28.4330,-82.6670,-9.809,1111122 
COMPS,ioos:station:USF.COMPS:ARP:1,2017-10-02T05:30:00Z,28.4330,-82.6670,-9.815,1111122 
COMPS,ioos:station:USF.COMPS:ARP:1,2017-10-02T05:36:00Z,28.4330,-82.6670,-9.827,1111122 
COMPS,ioos:station:USF.COMPS:ARP:1,2017-10-02T05:42:00Z,28.4330,-82.6670,-9.837,1111122 
COMPS,ioos:station:USF.COMPS:ARP:1,2017-10-02T05:48:00Z,28.4330,-82.6670,-9.848,1111122 
COMPS,ioos:station:USF.COMPS:ARP:1,2017-10-02T05:54:00Z,28.4330,-82.6670,-9.849,1111122 
COMPS,ioos:station:USF.COMPS:ARP:1,2017-10-02T06:00:00Z,28.4330,-82.6670,-9.848,1111122 
COMPS,ioos:station:USF.COMPS:ARP:1,2017-10-02T06:06:00Z,28.4330,-82.6670,-9.853,1111122 
COMPS,ioos:station:USF.COMPS:ARP:1,2017-10-02T06:12:00Z,28.4330,-82.6670,-9.849,1111122 
COMPS,ioos:station:USF.COMPS:ARP:1,2017-10-02T06:18:00Z,28.4330,-82.6670,-9.855,1111122 
COMPS,ioos:station:USF.COMPS:ARP:1,2017-10-02T06:24:00Z,28.4330,-82.6670,-9.86,1111122 
COMPS,ioos:station:USF.COMPS:ARP:1,2017-10-02T06:30:00Z,28.4330,-82.6670,-9.867,1111122 
COMPS,ioos:station:USF.COMPS:ARP:1,2017-10-02T06:36:00Z,28.4330,-82.6670,-9.878,1111122 
COMPS,ioos:station:USF.COMPS:ARP:1,2017-10-02T06:42:00Z,28.4330,-82.6670,-9.881,1111122 
COMPS,ioos:station:USF.COMPS:ARP:1,2017-10-02T06:48:00Z,28.4330,-82.6670,-9.886,1111122 
COMPS,ioos:station:USF.COMPS:ARP:1,2017-10-02T06:54:00Z,28.4330,-82.6670,-9.886,1111122 
COMPS,ioos:station:USF.COMPS:ARP:1,2017-10-02T07:00:00Z,28.4330,-82.6670,-9.892,1111122 
COMPS,ioos:station:USF.COMPS:ARP:1,2017-10-02T07:06:00Z,28.4330,-82.6670,-9.893,1111122 
COMPS,ioos:station:USF.COMPS:ARP:1,2017-10-02T07:12:00Z,28.4330,-82.6670,-9.896,1111122 
COMPS,ioos:station:USF.COMPS:ARP:1,2017-10-02T07:18:00Z,28.4330,-82.6670,-9.902,1111122 
COMPS,ioos:station:USF.COMPS:ARP:1,2017-10-02T07:24:00Z,28.4330,-82.6670,-9.904,1111122 
COMPS,ioos:station:USF.COMPS:ARP:1,2017-10-02T07:30:00Z,28.4330,-82.6670,-9.908,1111122 
COMPS,ioos:station:USF.COMPS:ARP:1,2017-10-02T07:36:00Z,28.4330,-82.6670,-9.913,1111122 
COMPS,ioos:station:USF.COMPS:ARP:1,2017-10-02T07:42:00Z,28.4330,-82.6670,-9.919,1111122 
COMPS,ioos:station:USF.COMPS:ARP:1,2017-10-02T07:48:00Z,28.4330,-82.6670,-9.927,1111122 
COMPS,ioos:station:USF.COMPS:ARP:1,2017-10-02T07:54:00Z,28.4330,-82.6670,-9.943,1111122 
COMPS,ioos:station:USF.COMPS:ARP:1,2017-10-02T08:00:00Z,28.4330,-82.6670,-9.954,1111122 
COMPS,ioos:station:USF.COMPS:ARP:1,2017-10-02T08:06:00Z,28.4330,-82.6670,-9.967,1111122 
COMPS,ioos:station:USF.COMPS:ARP:1,2017-10-02T08:12:00Z,28.4330,-82.6670,-9.979,1111122 
COMPS,ioos:station:USF.COMPS:ARP:1,2017-10-02T08:18:00Z,28.4330,-82.6670,-9.988,1111122 
COMPS,ioos:station:USF.COMPS:ARP:1,2017-10-02T08:24:00Z,28.4330,-82.6670,-9.999,1111122 
COMPS,ioos:station:USF.COMPS:ARP:1,2017-10-02T10:48:00Z,28.4330,-82.6670,-9.993,1111122 
COMPS,ioos:station:USF.COMPS:ARP:1,2017-10-02T10:54:00Z,28.4330,-82.6670,-9.98,1111122 
COMPS,ioos:station:USF.COMPS:ARP:1,2017-10-02T11:00:00Z,28.4330,-82.6670,-9.968,1111122 
COMPS,ioos:station:USF.COMPS:ARP:1,2017-10-02T11:06:00Z,28.4330,-82.6670,-9.958,1111122 
COMPS,ioos:station:USF.COMPS:ARP:1,2017-10-02T11:12:00Z,28.4330,-82.6670,-9.949,1111122 
COMPS,ioos:station:USF.COMPS:ARP:1,2017-10-02T11:18:00Z,28.4330,-82.6670,-9.942,1111122 
COMPS,ioos:station:USF.COMPS:ARP:1,2017-10-02T11:24:00Z,28.4330,-82.6670,-9.931,1111122 
COMPS,ioos:station:USF.COMPS:ARP:1,2017-10-02T11:30:00Z,28.4330,-82.6670,-9.924,1111122 
COMPS,ioos:station:USF.COMPS:ARP:1,2017-10-02T11:36:00Z,28.4330,-82.6670,-9.918,1111122 
COMPS,ioos:station:USF.COMPS:ARP:1,2017-10-02T11:42:00Z,28.4330,-82.6670,-9.907,1111122 
COMPS,ioos:station:USF.COMPS:ARP:1,2017-10-02T11:48:00Z,28.4330,-82.6670,-9.897,1111122 
COMPS,ioos:station:USF.COMPS:ARP:1,2017-10-02T12:00:00Z,28.4330,-82.6670,-9.876,1111122 
COMPS,ioos:station:USF.COMPS:ARP:1,2017-10-02T12:06:00Z,28.4330,-82.6670,-9.864,1111122 
COMPS,ioos:station:USF.COMPS:ARP:1,2017-10-02T12:12:00Z,28.4330,-82.6670,-9.854,1111122 
COMPS,ioos:station:USF.COMPS:ARP:1,2017-10-02T12:18:00Z,28.4330,-82.6670,-9.844,1111122 
COMPS,ioos:station:USF.COMPS:ARP:1,2017-10-02T12:30:00Z,28.4330,-82.6670,-9.82,1111122 
COMPS,ioos:station:USF.COMPS:ARP:1,2017-10-02T12:36:00Z,28.4330,-82.6670,-9.808,1111122 
COMPS,ioos:station:USF.COMPS:ARP:1,2017-10-02T12:42:00Z,28.4330,-82.6670,-9.796,1111122 
COMPS,ioos:station:USF.COMPS:ARP:1,2017-10-02T12:48:00Z,28.4330,-82.6670,-9.785,1111122 
COMPS,ioos:station:USF.COMPS:ARP:1,2017-10-02T12:54:00Z,28.4330,-82.6670,-9.774,1111122 
COMPS,ioos:station:USF.COMPS:ARP:1,2017-10-02T13:00:00Z,28.4330,-82.6670,-9.76,1111122 
COMPS,ioos:station:USF.COMPS:ARP:1,2017-10-02T13:06:00Z,28.4330,-82.6670,-9.746,1111122 
COMPS,ioos:station:USF.COMPS:ARP:1,2017-10-02T13:12:00Z,28.4330,-82.6670,-9.731,1111122 
COMPS,ioos:station:USF.COMPS:ARP:1,2017-10-02T13:18:00Z,28.4330,-82.6670,-9.72,1111122 
COMPS,ioos:station:USF.COMPS:ARP:1,2017-10-02T13:24:00Z,28.4330,-82.6670,-9.711,1111122 
COMPS,ioos:station:USF.COMPS:ARP:1,2017-10-02T13:30:00Z,28.4330,-82.6670,-9.702,1111122 
COMPS,ioos:station:USF.COMPS:ARP:1,2017-10-02T13:36:00Z,28.4330,-82.6670,-9.697,1111122 
COMPS,ioos:station:USF.COMPS:ARP:1,2017-10-02T13:42:00Z,28.4330,-82.6670,-9.692,1111122 
COMPS,ioos:station:USF.COMPS:ARP:1,2017-10-02T13:48:00Z,28.4330,-82.6670,-9.685,1111122 
COMPS,ioos:station:USF.COMPS:ARP:1,2017-10-02T13:54:00Z,28.4330,-82.6670,-9.674,1111122 
COMPS,ioos:station:USF.COMPS:ARP:1,2017-10-02T14:00:00Z,28.4330,-82.6670,-9.665,1111122 
COMPS,ioos:station:USF.COMPS:ARP:1,2017-10-02T14:12:00Z,28.4330,-82.6670,-9.642,1111122 
COMPS,ioos:station:USF.COMPS:ARP:1,2017-10-02T14:18:00Z,28.4330,-82.6670,-9.635,1111122 
COMPS,ioos:station:USF.COMPS:ARP:1,2017-10-02T14:24:00Z,28.4330,-82.6670,-9.626,1111122 